Regional Weather Roundup
Issued by NWS

Home | Current Version | Previous Version | Text Only | Print | Product List | Glossary Off
Versions: 1 2 3 4 5 6 7 8 9 10 11 12 13 14 15 16 17 18 19 20 21 22 23 24 25 26 27 28 29 30 31 32 33 34 35 36 37 38 39 40 41 42 43 44 45 46 47 48 49 50

000
ASUS43 KLOT 040000
RWRIL

ILLINOIS REGIONAL WEATHER ROUNDUP
NATIONAL WEATHER SERVICE CHICAGO/ROMEOVILLE IL
600 PM CST TUE MAR 03 2015

NOTE: "FAIR" INDICATES FEW OR NO CLOUDS BELOW 12,000 FEET WITH NO
SIGNIFICANT WEATHER AND/OR OBSTRUCTIONS TO VISIBILITY.

* THESE STATIONS ARE NOT UNDER NWS QUALITY CONTROL. THEY ALSO MAY NOT
  REPORT WEATHER SUCH AS PRECIPITATION OR FOG.

ILZ001-002-007-009-015-016-024-040100-
NORTHWEST ILLINOIS

CITY           SKY/WX    TMP DP  RH WIND       PRES   REMARKS
MOLINE         CLOUDY    33  27  78 W8        29.80R WCI  26
6HR MIN TEMP:  33; 6HR MAX TEMP:  35;

STERLING*      CLOUDY    34  28  80 W12       29.78R WCI  25
$$

ILZ003-004-008-010-011-017-018-040100-
NORTH CENTRAL ILLINOIS

CITY           SKY/WX    TMP DP  RH WIND       PRES   REMARKS
ROCKFORD       CLOUDY    32  25  75 NW13      29.77R WCI  22
6HR MIN TEMP:  32; 6HR MAX TEMP:  34; 6HR PCP: TRACE;

FREEPORT*      CLOUDY    31  25  78 W12       29.77R WCI  21
$$

ILZ005-006-012>014-019>023-040100-
NORTHEAST ILLINOIS

CITY           SKY/WX    TMP DP  RH WIND       PRES   REMARKS
CHICAGO-OHARE  CLOUDY    34  28  79 W16       29.73R WCI  24
6HR MIN TEMP:  32; 6HR MAX TEMP:  34; 6HR PCP: TRACE;

CHICAGO-MIDWAY CLOUDY    36  30  79 W17G23    29.76R WCI  26
6HR MIN TEMP:  34; 6HR MAX TEMP:  37; 6HR PCP:  0.01;

AURORA         CLOUDY    34  29  82 W14       29.76R WCI  25
6HR MIN TEMP:  33; 6HR MAX TEMP:  35;

LANSING*       CLOUDY    35  30  82 W17       29.75R WCI  24
WAUKEGAN       CLOUDY    33  27  78 W8        29.71R WCI  26
6HR MIN TEMP:  31; 6HR MAX TEMP:  34; 6HR PCP:  0.01;

DUPAGE AIRPORT CLOUDY    33  29  85 W15       29.74R WCI  23
6HR MIN TEMP:  32; 6HR MAX TEMP:  34; 6HR PCP: TRACE;

WHEELING       CLOUDY    34  28  79 W9        29.75R WCI  27
6HR MIN TEMP:  32; 6HR MAX TEMP:  34; 6HR PCP:  0.03;

NORTHERLY ISL    N/A     35  29  79 W9          N/A  WCI  28
$$

LMZ740>746-040100-
SOUTHERN LAKE MICHIGAN

STATION/POSITION SKY/WX   TEMP    WIND        PRES    VSBY  WAVE
                          AIR SEA DIR/SP/G                  HT/PER
                          (F)     (DEG/KT/KT) (MB)    (MI)  (FT/S)
WAUKEGAN HARBOR            33                   N/A
HARRISON CRIB              35     270/ 19/ 22   N/A
BURNHAM HARBOR             35     280/ 10/ 15   N/A
CALUMET HARBOR             35     250/  8/ 12 1005.4R
MICHIGAN CITY              34     230/ 14/ 17   N/A
$$

ILZ025>027-034>036-040-047-049-050-058-095>099-040100-
WEST-CENTRAL ILLINOIS

CITY           SKY/WX    TMP DP  RH WIND       PRES   REMARKS
QUINCY         CLOUDY    35  32  88 NW7       29.85R WCI  29
MACOMB*        CLOUDY    35  32  90 NW13      29.84R WCI  26
$$

ILZ028>032-037-038-041>044-048-051>054-059>061-040100-
CENTRAL ILLINOIS

CITY           SKY/WX    TMP DP  RH WIND       PRES   REMARKS
DECATUR        CLOUDY    39  37  92 W9        29.80F WCI  33
PEORIA         CLOUDY    37  30  75 NW8       29.80R WCI  31
6HR MIN TEMP:  35; 6HR MAX TEMP:  39;

SPRINGFIELD    CLOUDY    38  36  92 W10       29.82S FOG     WCI  31
6HR MIN TEMP:  37; 6HR MAX TEMP:  40; 6HR PCP: TRACE;

TAYLORVILLE    NOT AVBL
$$

ILZ033-039-045-046-055>057-062-063-040100-
EAST-CENTRAL ILLINOIS

CITY           SKY/WX    TMP DP  RH WIND       PRES   REMARKS
CHAMPAIGN      CLOUDY    36  34  92 W13       29.80F FOG     WCI  27
MATTOON        CLOUDY    38  37  97 W9        29.80S WCI  31
$$

ILZ079-100>102-040100-
SOUTHWEST ILLINOIS

CITY           SKY/WX    TMP DP  RH WIND       PRES   REMARKS
ALTON          CLOUDY    37  37 100 W6        29.85R FOG     WCI  33
CAHOKIA*       LGT RAIN  44  42  93 NW8       29.86R
$$

ILZ064>066-069>071-074>076-080>082-084>086-088>090-092>094-040100-
SOUTH-CENTRAL ILLINOIS

CITY           SKY/WX    TMP DP  RH WIND       PRES   REMARKS
CARBONDALE     CLOUDY    44  42  93 SW6       29.86R FOG
6HR MIN TEMP:  43; 6HR MAX TEMP:  46;

MARION         LGT RAIN  45  43  93 SW12      29.88R
MT. VERNON     CLOUDY    43  39  87 SW5       29.86S VSB 3/4
$$

ILZ067-068-072-073-078-083-087-091-040100-
SOUTHEAST ILLINOIS

CITY           SKY/WX    TMP DP  RH WIND       PRES   REMARKS
LAWRENCEVILLE  LGT RAIN  41  40  96 W8        29.88R
$$

ABBREVIATIONS USED IN REMARKS
   TC - TEMPERATURE IN CELSIUS
  WCI - WIND CHILL INDEX
   HX - HEAT INDEX
  VSB - VISIBILITY
$$




USA.gov is the U.S. government's official web portal to all federal, state and local government web resources and services.